sat.trackr.live / text

‹ back to catalog

STARLINK-36175

NORAD 67012 · 2025-293K

PAYLOAD ACTIVE UNKNOWN

§ Identity

Operator
Country
US
Launch date
2025-12-10
Launch site
AFWTR
Launch vehicle
Mass (kg)
RCS (m²)

Purposes: comms

External: N2YO · Heavens-Above · Gunter

§ Orbital elements

Epoch: 2026-09-20T13:30:55.349568Z

Period
96.11 min
Inclination
70.0012°
Eccentricity
0.0003865
Mean motion
14.98335939 rev/d
Perigee alt
569.4 km
Apogee alt
574.7 km
Semi-major
6,950.2 km
B*
1.6431e-4
RAAN
323.2866°
Arg perigee
269.5055°
Mean anomaly
90.5661°
Rev number
4,407

§ Raw data

STARLINK-361751 67012U 25293K   26263.56314062  .00001868  00000+0  16431-3 0  99932 67012  70.0012 323.2866 0003865 269.5055  90.5661 14.98335939 44078

JSON: /api/v1/satellites/67012 · /tle

For live sub-satellite position, see the globe view (requires WebGL).

§ Visibility from observer

Set your observer location to see the next 7 days of passes ≥ 10°. The values pass through the URL so the page stays shareable.

No JS? Fill the form by hand. The geolocation button needs JavaScript.